| time (UTC) | temp F | wind direction | speed MPH | gust MPH | rain 1hr in | rain 24hr in | rain mn in | humidity % | barometer mb |
| 20260503213825 | 67 | 360 | 12.0 | 26.0 | 0.00 | 0.01 | 0.01 | 44 | 1002.8 |
| 20260503213330 | 67 | 360 | 12.0 | 26.0 | 0.00 | 0.01 | 0.01 | 44 | 1002.9 |
| 20260503212838 | 66 | 360 | 15.0 | 26.0 | 0.00 | 0.01 | 0.01 | 44 | 1002.9 |
| 20260503212326 | 66 | 360 | 13.0 | 33.0 | 0.00 | 0.01 | 0.01 | 44 | 1002.9 |
| 20260503211836 | 66 | 360 | 19.0 | 33.0 | 0.00 | 0.01 | 0.01 | 44 | 1003.0 |
| 20260503211328 | 66 | 360 | 22.0 | 29.0 | 0.00 | 0.01 | 0.01 | 43 | 1003.1 |
| 20260503210901 | 66 | 360 | 16.0 | 36.0 | 0.00 | 0.01 | 0.01 | 45 | 1003.1 |
| 20260503210330 | 65 | 360 | 24.0 | 36.0 | 0.00 | 0.01 | 0.01 | 44 | 1003.2 |
| 20260503205839 | 64 | 360 | 18.0 | 37.0 | 0.00 | 0.01 | 0.01 | 45 | 1003.4 |
| 20260503205327 | 65 | 360 | 25.0 | 37.0 | 0.00 | 0.01 | 0.01 | 43 | 1003.4 |
| 20260503204835 | 65 | 360 | 20.0 | 30.0 | 0.00 | 0.01 | 0.01 | 44 | 1003.4 |
| 20260503204324 | 65 | 360 | 20.0 | 36.0 | 0.00 | 0.01 | 0.01 | 44 | 1003.7 |
| 20260503203859 | 65 | 360 | 24.0 | 36.0 | 0.00 | 0.01 | 0.01 | 44 | 1003.8 |
| 20260503203324 | 65 | 360 | 17.0 | 29.0 | 0.00 | 0.01 | 0.01 | 45 | 1003.8 |
| 20260503202834 | 65 | 360 | 15.0 | 25.0 | 0.00 | 0.01 | 0.01 | 49 | 1003.8 |
| 20260503202322 | 64 | 360 | 15.0 | 26.0 | 0.00 | 0.01 | 0.01 | 49 | 1004.0 |
| 20260503201831 | 63 | 360 | 20.0 | 27.0 | 0.00 | 0.01 | 0.01 | 49 | 1004.1 |
| 20260503201341 | 63 | 360 | 19.0 | 30.0 | 0.00 | 0.01 | 0.01 | 51 | 1004.3 |
| 20260503200848 | 62 | 360 | 17.0 | 30.0 | 0.00 | 0.01 | 0.01 | 51 | 1004.6 |
| 20260503200333 | 62 | 360 | 20.0 | 30.0 | 0.00 | 0.01 | 0.01 | 53 | 1004.7 |
| 20260503195822 | 62 | 360 | 15.0 | 28.0 | 0.00 | 0.01 | 0.01 | 52 | 1005.1 |
| 20260503195332 | 62 | 360 | 16.0 | 31.0 | 0.00 | 0.01 | 0.01 | 52 | 1005.2 |
| 20260503194839 | 63 | 360 | 20.0 | 31.0 | 0.00 | 0.01 | 0.01 | 49 | 1005.2 |
| 20260503194328 | 63 | 360 | 16.0 | 28.0 | 0.00 | 0.01 | 0.01 | 50 | 1005.3 |
| 20260503193836 | 62 | 360 | 14.0 | 28.0 | 0.00 | 0.01 | 0.01 | 50 | 1005.4 |
| 20260503193344 | 62 | 360 | 14.0 | 26.0 | 0.00 | 0.01 | 0.01 | 51 | 1005.3 |
| 20260503192834 | 62 | 360 | 17.0 | 28.0 | 0.00 | 0.01 | 0.01 | 49 | 1005.4 |
| 20260503192322 | 62 | 360 | 18.0 | 28.0 | 0.00 | 0.01 | 0.01 | 50 | 1005.3 |
| 20260503191830 | 62 | 360 | 14.0 | 29.0 | 0.00 | 0.01 | 0.01 | 49 | 1005.3 |
| 20260503191339 | 61 | 360 | 18.0 | 29.0 | 0.00 | 0.01 | 0.01 | 48 | 1005.2 |
| 20260503190825 | 61 | 360 | 15.0 | 27.0 | 0.00 | 0.01 | 0.01 | 49 | 1005.2 |
| 20260503190335 | 61 | 360 | 18.0 | 27.0 | 0.00 | 0.01 | 0.01 | 48 | 1005.3 |
| 20260503185845 | 61 | 360 | 20.0 | 27.0 | 0.00 | 0.01 | 0.01 | 48 | 1005.4 |
| 20260503185351 | 60 | 360 | 16.0 | 30.0 | 0.00 | 0.01 | 0.01 | 49 | 1005.2 |
| 20260503184838 | 60 | 360 | 15.0 | 30.0 | 0.00 | 0.01 | 0.01 | 49 | 1005.5 |
| 20260503184327 | 60 | 360 | 16.0 | 27.0 | 0.00 | 0.01 | 0.01 | 50 | 1005.5 |
| 20260503183837 | 60 | 360 | 19.0 | 27.0 | 0.00 | 0.01 | 0.01 | 50 | 1005.4 |
| 20260503183323 | 60 | 360 | 14.0 | 25.0 | 0.00 | 0.01 | 0.01 | 52 | 1005.5 |
| 20260503182831 | 59 | 360 | 14.0 | 24.0 | 0.00 | 0.01 | 0.01 | 53 | 1005.8 |
| 20260503182321 | 59 | 360 | 16.0 | 28.0 | 0.00 | 0.01 | 0.01 | 53 | 1005.8 |
| 20260503181830 | 59 | 360 | 14.0 | 29.0 | 0.00 | 0.01 | 0.01 | 53 | 1005.9 |
| 20260503181341 | 59 | 360 | 16.0 | 29.0 | 0.00 | 0.01 | 0.01 | 52 | 1005.9 |
| 20260503180828 | 59 | 360 | 20.0 | 29.0 | 0.01 | 0.01 | 0.01 | 52 | 1006.0 |
| 20260503180336 | 58 | 360 | 13.0 | 29.0 | 0.01 | 0.01 | 0.01 | 54 | 1006.1 |
| 20260503175825 | 58 | 360 | 18.0 | 28.0 | 0.01 | 0.01 | 0.01 | 53 | 1006.1 |
| 20260503175335 | 58 | 360 | 17.0 | 30.0 | 0.01 | 0.01 | 0.01 | 56 | 1006.3 |
| 20260503174846 | 58 | 360 | 20.0 | 30.0 | 0.01 | 0.01 | 0.01 | 56 | 1006.6 |
| 20260503174356 | 58 | 360 | 18.0 | 29.0 | 0.01 | 0.01 | 0.01 | 55 | 1006.7 |
| 20260503173824 | 58 | 360 | 17.0 | 26.0 | 0.01 | 0.01 | 0.01 | 57 | 1006.7 |
| 20260503173358 | 57 | 360 | 21.0 | 29.0 | 0.01 | 0.01 | 0.01 | 59 | 1006.9 |
| 20260503172847 | 57 | 360 | 10.0 | 29.0 | 0.01 | 0.01 | 0.01 | 62 | 1007.2 |
| 20260503172356 | 57 | 360 | 15.0 | 24.0 | 0.01 | 0.01 | 0.01 | 62 | 1007.3 |
| 20260503171824 | 56 | 360 | 17.0 | 31.0 | 0.01 | 0.01 | 0.01 | 64 | 1007.5 |
| 20260503171358 | 55 | 360 | 17.0 | 31.0 | 0.01 | 0.01 | 0.01 | 65 | 1007.7 |
| 20260503170824 | 55 | 360 | 16.0 | 26.0 | 0.00 | 0.00 | 0.00 | 64 | 1007.8 |
| 20260503170334 | 55 | 360 | 14.0 | 24.0 | 0.00 | 0.00 | 0.00 | 65 | 1008.0 |
| 20260503150826 | 55 | 360 | 22.0 | 28.0 | 0.00 | 0.00 | 0.00 | 58 | 1009.2 |
| 20260503150336 | 55 | 360 | 17.0 | 27.0 | 0.00 | 0.00 | 0.00 | 59 | 1009.3 |
| 20260503131336 | 52 | 360 | 15.0 | 27.0 | 0.00 | 0.00 | 0.00 | 57 | 1010.0 |
| 20260503130843 | 52 | 360 | 18.0 | 26.0 | 0.00 | 0.00 | 0.00 | 57 | 1010.2 |
| 20260503130351 | 52 | 360 | 14.0 | 26.0 | 0.00 | 0.00 | 0.00 | 57 | 1010.4 |
| 20260503110326 | 49 | 360 | 15.0 | 21.0 | 0.00 | 0.00 | 0.00 | 55 | 1009.8 |
| 20260503090329 | 48 | 360 | 10.0 | 14.0 | 0.00 | 0.00 | 0.00 | 54 | 1010.7 |
| 20260503081340 | 47 | 360 | 9.0 | 14.0 | 0.00 | 0.00 | 0.00 | 54 | 1010.9 |
| 20260503080828 | 47 | 360 | 9.0 | 15.0 | 0.00 | 0.00 | 0.00 | 54 | 1010.9 |
| 20260503080338 | 47 | 360 | 10.0 | 15.0 | 0.00 | 0.00 | 0.00 | 54 | 1010.9 |
| 20260503072839 | 47 | 360 | 9.0 | 12.0 | 0.00 | 0.00 | 0.00 | 56 | 1010.7 |
| 20260503072349 | 47 | 360 | 9.0 | 13.0 | 0.00 | 0.00 | 0.00 | 55 | 1010.8 |
| 20260503071838 | 47 | 360 | 8.0 | 13.0 | 0.00 | 0.00 | 0.00 | 56 | 1010.9 |
| 20260503071329 | 47 | 360 | 8.0 | 14.0 | 0.00 | 0.00 | 0.00 | 56 | 1010.9 |
| 20260503070836 | 46 | 360 | 10.0 | 14.0 | 0.00 | 0.00 | 0.00 | 56 | 1011.0 |
| 20260503070346 | 46 | 360 | 8.0 | 11.0 | 0.00 | 0.00 | 0.00 | 57 | 1011.0 |
| 20260503060334 | 47 | 360 | 5.0 | 11.0 | 0.00 | 0.00 | 0.00 | 56 | 1011.5 |
| 20260503054833 | 47 | 360 | 7.0 | 10.0 | 0.00 | 0.00 | 0.00 | 56 | 1011.7 |
| 20260503054324 | 47 | 360 | 6.0 | 10.0 | 0.00 | 0.00 | 0.00 | 56 | 1011.7 |
| 20260503053832 | 47 | 360 | 7.0 | 10.0 | 0.00 | 0.00 | 0.00 | 56 | 1011.7 |
| 20260503053322 | 46 | 360 | 6.0 | 9.0 | 0.00 | 0.00 | 0.00 | 57 | 1011.7 |
| 20260503052831 | 46 | 360 | 6.0 | 9.0 | 0.00 | 0.00 | 0.00 | 57 | 1011.8 |
| 20260503052336 | 46 | 360 | 6.0 | 9.0 | 0.00 | 0.00 | 0.00 | 57 | 1011.8 |
| 20260503051825 | 46 | 360 | 6.0 | 8.0 | 0.00 | 0.00 | 0.00 | 57 | 1011.9 |
| 20260503051335 | 46 | 360 | 6.0 | 8.0 | 0.00 | 0.00 | 0.00 | 57 | 1011.8 |
| 20260503050823 | 46 | 360 | 5.0 | 10.0 | 0.00 | 0.00 | 0.00 | 57 | 1011.9 |
| 20260503050332 | 47 | 360 | 6.0 | 10.0 | 0.00 | 0.00 | 0.00 | 57 | 1011.9 |
| 20260503045841 | 47 | 360 | 7.0 | 10.0 | 0.00 | 0.00 | 0.00 | 57 | 1011.9 |
| 20260503045330 | 47 | 360 | 6.0 | 11.0 | 0.00 | 0.00 | 0.00 | 56 | 1012.0 |
| 20260503044839 | 47 | 360 | 6.0 | 11.0 | 0.00 | 0.00 | 0.00 | 56 | 1012.0 |
| 20260503044330 | 47 | 360 | 5.0 | 9.0 | 0.00 | 0.00 | 0.00 | 57 | 1012.0 |
| 20260503043904 | 47 | 360 | 6.0 | 10.0 | 0.00 | 0.00 | 0.00 | 56 | 1012.0 |
| 20260503043352 | 47 | 360 | 7.0 | 11.0 | 0.00 | 0.00 | 0.00 | 56 | 1012.0 |
| 20260503042839 | 47 | 360 | 7.0 | 11.0 | 0.00 | 0.00 | 0.00 | 56 | 1012.1 |
| 20260503042327 | 47 | 360 | 6.0 | 10.0 | 0.00 | 0.00 | 0.00 | 56 | 1012.1 |
| 20260503041835 | 47 | 360 | 5.0 | 10.0 | 0.00 | 0.00 | 0.00 | 56 | 1012.2 |
| 20260503041325 | 47 | 360 | 6.0 | 8.0 | 0.00 | 0.00 | 0.00 | 56 | 1012.2 |
| 20260503040831 | 47 | 360 | 5.0 | 9.0 | 0.00 | 0.00 | 0.00 | 56 | 1012.3 |
| 20260503040339 | 48 | 360 | 6.0 | 9.0 | 0.00 | 0.00 | 0.00 | 55 | 1012.3 |
| 20260503035828 | 48 | 360 | 6.0 | 10.0 | 0.00 | 0.00 | 0.00 | 55 | 1012.2 |
| 20260503035336 | 48 | 360 | 6.0 | 10.0 | 0.00 | 0.00 | 0.00 | 55 | 1012.3 |
| 20260503034825 | 48 | 360 | 6.0 | 9.0 | 0.00 | 0.00 | 0.00 | 56 | 1012.4 |
| 20260503034332 | 48 | 360 | 5.0 | 9.0 | 0.00 | 0.00 | 0.00 | 55 | 1012.4 |
| 20260503033838 | 48 | 360 | 5.0 | 8.0 | 0.00 | 0.00 | 0.00 | 55 | 1012.4 |
| 20260503033327 | 48 | 360 | 5.0 | 8.0 | 0.00 | 0.00 | 0.00 | 55 | 1012.4 |
| 20260503032836 | 48 | 360 | 5.0 | 8.0 | 0.00 | 0.00 | 0.00 | 55 | 1012.4 |
| 20260503032324 | 48 | 360 | 6.0 | 10.0 | 0.00 | 0.00 | 0.00 | 54 | 1012.4 |
| 20260503031835 | 48 | 360 | 7.0 | 10.0 | 0.00 | 0.00 | 0.00 | 54 | 1012.4 |
| 20260503031325 | 48 | 360 | 6.0 | 11.0 | 0.00 | 0.00 | 0.00 | 54 | 1012.5 |
| 20260503030833 | 48 | 360 | 6.0 | 11.0 | 0.00 | 0.00 | 0.00 | 54 | 1012.4 |
| 20260503030344 | 48 | 207 | 5.0 | 10.0 | 0.00 | 0.00 | 0.00 | 54 | 1012.5 |
| 20260503025850 | 48 | 207 | 5.0 | 8.0 | 0.00 | 0.00 | 0.00 | 54 | 1012.4 |
| 20260503025339 | 48 | 360 | 6.0 | 7.0 | 0.00 | 0.00 | 0.00 | 54 | 1012.5 |
| 20260503024848 | 48 | 360 | 5.0 | 9.0 | 0.00 | 0.00 | 0.00 | 54 | 1012.6 |
| 20260503024405 | 48 | 360 | 5.0 | 9.0 | 0.00 | 0.00 | 0.00 | 54 | 1012.6 |
| 20260503023851 | 49 | 360 | 5.0 | 9.0 | 0.00 | 0.00 | 0.00 | 54 | 1012.6 |
| 20260503023339 | 49 | 360 | 5.0 | 8.0 | 0.00 | 0.00 | 0.00 | 53 | 1012.5 |
| 20260503022829 | 49 | 360 | 5.0 | 8.0 | 0.00 | 0.00 | 0.00 | 53 | 1012.5 |
| 20260503022335 | 49 | 360 | 4.0 | 8.0 | 0.00 | 0.00 | 0.00 | 53 | 1012.6 |
| 20260503021822 | 49 | 360 | 4.0 | 7.0 | 0.00 | 0.00 | 0.00 | 52 | 1012.5 |
| 20260503021333 | 49 | 360 | 4.0 | 7.0 | 0.00 | 0.00 | 0.00 | 52 | 1012.5 |
| 20260503020842 | 49 | 360 | 4.0 | 6.0 | 0.00 | 0.00 | 0.00 | 52 | 1012.5 |
| 20260503020352 | 50 | 360 | 4.0 | 6.0 | 0.00 | 0.00 | 0.00 | 51 | 1012.5 |
| 20260503015837 | 50 | 360 | 4.0 | 7.0 | 0.00 | 0.00 | 0.00 | 50 | 1012.4 |
| 20260503015327 | 50 | 360 | 4.0 | 7.0 | 0.00 | 0.00 | 0.00 | 50 | 1012.4 |
| 20260503014837 | 50 | 360 | 4.0 | 7.0 | 0.00 | 0.00 | 0.00 | 50 | 1012.5 |
| 20260503014328 | 50 | 360 | 4.0 | 7.0 | 0.00 | 0.00 | 0.00 | 49 | 1012.4 |
| 20260503013835 | 50 | 360 | 5.0 | 6.0 | 0.00 | 0.00 | 0.00 | 49 | 1012.3 |
| 20260503013324 | 50 | 360 | 5.0 | 6.0 | 0.00 | 0.00 | 0.00 | 50 | 1012.3 |
| 20260503012833 | 50 | 360 | 4.0 | 6.0 | 0.00 | 0.00 | 0.00 | 50 | 1012.3 |
| 20260503012322 | 50 | 360 | 3.0 | 5.0 | 0.00 | 0.00 | 0.00 | 50 | 1012.3 |
| 20260503011830 | 50 | 360 | 3.0 | 5.0 | 0.00 | 0.00 | 0.00 | 50 | 1012.2 |
| 20260503011339 | 50 | 360 | 3.0 | 5.0 | 0.00 | 0.00 | 0.00 | 49 | 1012.2 |
| 20260503010823 | 51 | 190 | 3.0 | 5.0 | 0.00 | 0.00 | 0.00 | 50 | 1012.3 |
| 20260503010332 | 51 | 360 | 3.0 | 5.0 | 0.00 | 0.00 | 0.00 | 49 | 1012.3 |
| 20260503005822 | 51 | 360 | 3.0 | 5.0 | 0.00 | 0.00 | 0.00 | 49 | 1012.4 |
| 20260503005331 | 51 | 360 | 4.0 | 5.0 | 0.00 | 0.00 | 0.00 | 48 | 1012.4 |
| 20260503004835 | 52 | 360 | 4.0 | 7.0 | 0.00 | 0.00 | 0.00 | 48 | 1012.5 |
| 20260503004345 | 52 | 360 | 4.0 | 7.0 | 0.00 | 0.00 | 0.00 | 47 | 1012.5 |
| 20260503003851 | 52 | 360 | 5.0 | 6.0 | 0.00 | 0.00 | 0.00 | 46 | 1012.5 |
| 20260503003339 | 53 | 360 | 5.0 | 8.0 | 0.00 | 0.00 | 0.00 | 45 | 1012.4 |
| 20260503002848 | 53 | 360 | 6.0 | 9.0 | 0.00 | 0.00 | 0.00 | 45 | 1012.4 |
| 20260503002356 | 53 | 360 | 6.0 | 9.0 | 0.00 | 0.00 | 0.00 | 43 | 1012.5 |
| 20260503001825 | 54 | 360 | 6.0 | 9.0 | 0.00 | 0.00 | 0.00 | 43 | 1012.5 |
| 20260503001334 | 54 | 360 | 5.0 | 9.0 | 0.00 | 0.00 | 0.00 | 43 | 1012.4 |
| 20260503000841 | 54 | 360 | 7.0 | 9.0 | 0.00 | 0.00 | 0.00 | 43 | 1012.4 |
| 20260503000350 | 54 | 360 | 5.0 | 8.0 | 0.00 | 0.00 | 0.00 | 42 | 1012.4 |
| 20260502235905 | 55 | 360 | 3.0 | 8.0 | 0.00 | 0.00 | 0.00 | 41 | 1012.5 |
| 20260502235354 | 55 | 360 | 5.0 | 11.0 | 0.00 | 0.00 | 0.00 | 41 | 1012.5 |
| 20260502234840 | 55 | 360 | 5.0 | 12.0 | 0.00 | 0.00 | 0.00 | 40 | 1012.6 |
| 20260502234345 | 55 | 360 | 5.0 | 12.0 | 0.00 | 0.00 | 0.00 | 40 | 1012.6 |
| 20260502233838 | 55 | 360 | 6.0 | 12.0 | 0.00 | 0.00 | 0.00 | 39 | 1012.7 |
| 20260502233327 | 55 | 360 | 4.0 | 12.0 | 0.00 | 0.00 | 0.00 | 42 | 1012.6 |
| 20260502232834 | 55 | 360 | 5.0 | 11.0 | 0.00 | 0.00 | 0.00 | 41 | 1012.7 |
| 20260502232325 | 55 | 360 | 6.0 | 11.0 | 0.00 | 0.00 | 0.00 | 40 | 1012.8 |
| 20260502231832 | 55 | 360 | 6.0 | 10.0 | 0.00 | 0.00 | 0.00 | 42 | 1012.8 |
| 20260502231342 | 55 | 360 | 5.0 | 10.0 | 0.00 | 0.00 | 0.00 | 41 | 1012.9 |
| 20260502230829 | 55 | 360 | 6.0 | 9.0 | 0.00 | 0.00 | 0.00 | 41 | 1012.9 |
| 20260502230337 | 55 | 360 | 5.0 | 9.0 | 0.00 | 0.00 | 0.00 | 40 | 1013.0 |
| 20260502225825 | 55 | 360 | 5.0 | 10.0 | 0.00 | 0.00 | 0.00 | 41 | 1013.0 |
| 20260502225335 | 55 | 360 | 5.0 | 13.0 | 0.00 | 0.01 | 0.00 | 39 | 1013.0 |
| 20260502224823 | 55 | 360 | 7.0 | 18.0 | 0.00 | 0.01 | 0.00 | 40 | 1013.0 |
| 20260502224341 | 55 | 360 | 7.0 | 18.0 | 0.00 | 0.01 | 0.00 | 39 | 1013.0 |
| 20260502223828 | 56 | 360 | 13.0 | 16.0 | 0.00 | 0.01 | 0.00 | 40 | 1012.9 |
| 20260502223337 | 55 | 360 | 4.0 | 11.0 | 0.00 | 0.01 | 0.00 | 40 | 1012.9 |
| 20260502222848 | 56 | 360 | 7.0 | 11.0 | 0.00 | 0.01 | 0.00 | 40 | 1013.0 |
| 20260502222358 | 55 | 360 | 2.0 | 12.0 | 0.00 | 0.01 | 0.00 | 41 | 1013.1 |
| 20260502221825 | 55 | 360 | 7.0 | 12.0 | 0.00 | 0.01 | 0.00 | 41 | 1013.1 |
| 20260502221331 | 55 | 360 | 7.0 | 13.0 | 0.00 | 0.01 | 0.00 | 41 | 1013.1 |
| 20260502220839 | 55 | 360 | 6.0 | 13.0 | 0.00 | 0.01 | 0.00 | 40 | 1013.2 |
| 20260502215823 | 56 | 360 | 8.0 | 13.0 | 0.00 | 0.01 | 0.00 | 39 | 1013.1 |
| 20260502215332 | 55 | 360 | 9.0 | 12.0 | 0.00 | 0.01 | 0.00 | 38 | 1013.2 |
| 20260502214841 | 55 | 360 | 8.0 | 11.0 | 0.00 | 0.01 | 0.00 | 40 | 1013.2 |
| 20260502214354 | 55 | 360 | 4.0 | 15.0 | 0.00 | 0.01 | 0.00 | 39 | 1013.3 |